UK-DMC 2

Last updated on Thu Nov 21 2024 00:02:33 GMT+0000 (Coordinated Universal Time)

1 35683U 09041C 24325.56881453 .00001951 00000+0 30241-3 0 9993 2 35683 97.8031 107.0851 0001095 80.9268 279.2065 14.74249265821999
UTC large
Height (km)
Speed (km/s)
/
Latitude / Longitude
Inclination (degrees)
Orbital Period (minutes)
Azimuth
Elevation
Range (km)
Doppler Factor

Next 0 passes for location: London (51.5072 / 0.1276)

Sorry there are no passes over London.